SCP
0 0 0 0 0 0 0 0 0 0 0 0 0 0 0 0 0 0 0 1 0 0 0 0 0 0 1 1 0 0 0 0 0 0 0 0 0 0 0 0 0 0 0
0 0 0 0 0 0 0 0 0 0 0 0 0 0 0 0 0 0 0 0 0 0 0 0 0 0 1 0 0 0 0 0 0 0 0 0 0 0 0 0 0 0 0
1 1 0 0 0 0 0 0 0 0 0 0 0 0 0 0 0 0 0 0 0 0 0 0 0 0 1 0 0 0 0 0 0 0 0 0 0 0 0 0 0 0 0
1 1 0 0 0 0 0 0 0 0 0 0 0 0 0 0 0 0 0 0 0 0 0 1 1 1 1 0 0 0 0 0 0 0 0 0 0 0 0 0 0 0 0
0 0 0 0 1 0 0 0 0 0 1 1 0 1 1 1 1 1 1 0 0 0 0 1 1 1 1 0 0 0 0 0 0 0 0 0 0 0 0 0 0 0 0
0 0 0 1 0 0 0 0 0 0 1 1 1 1 1 2 2 1 1 0 0 1 1 1 1 1 0 1 0 0 0 0 0 0 0 0 0 0 0 0 0 0 0
0 0 0 1 0 0 0 0 1 2 2 1 2 2 2 2 2 1 1 1 0 1 1 1 1 1 1 0 0 0 0 0 0 0 0 0 0 0 0 0 0 0 0
0 1 1 1 2 0 1 0 2 3 2 3 3 2 3 4 2 1 1 1 1 1 1 1 1 1 1 0 1 0 0 0 0 0 0 0 0 0 0 0 0 0 0
1 1 1 2 2 1 2 3 3 4 3 3 2 3 4 3 2 2 1 1 1 1 1 1 1 1 1 1 1 1 1 0 0 0 0 0 0 0 0 0 0 0 0
1 2 2 2 3 3 3 4 3 3 2 4 4 3 4 4 2 1 1 1 1 1 1 1 1 1 1 1 1 1 0 0 0 0 0 0 0 0 0 0 0 0 0
1 1 2 2 3 3 4 6 4 4 3 2 4 3 4 2 1 1 1 1 1 1 1 1 1 1 1 0 0 0 0 0 0 0 0 0 0 0 0 0 0 0 0
3 3 3 4 3 3 3 4 5 4 3 3 3 4 4 2 2 1 1 1 1 2 1 1 1 1 0 0 0 0 0 0 0 0 0 0 0 0 0 0 0 0 0
3 5 4 4 3 3 4 4 4 3 3 3 3 5 3 2 2 1 1 1 1 2 1 1 1 1 0 0 0 0 0 0 0 0 0 0 0 0 0 0 0 0 0
2 5 4 3 3 4 3 4 4 3 2 2 3 5 3 2 2 1 1 0 1 1 1 1 1 0 0 0 0 0 0 0 0 0 0 0 0 0 0 0 0 0 0
3 5 3 3 2 2 3 5 3 2 2 3 5 4 3 2 1 1 1 1 1 0 2 1 0 1 0 0 0 0 0 0 0 0 0 0 0 0 0 0 0 0 0
3 4 2 3 2 3 3 4 3 2 3 4 5 4 2 2 1 1 1 0 0 0 0 1 0 0 0 0 0 0 0 0 0 0 0 0 0 0 0 0 0 0 0
2 2 2 3 3 3 3 4 3 3 3 4 3 3 2 2 1 1 0 0 1 0 0 1 1 0 0 0 0 0 0 0 0 0 0 0 0 0 0 0 0 0 0
1 1 2 2 2 2 3 2 3 4 3 3 3 2 2 1 1 1 1 1 0 0 0 1 0 0 0 0 0 0 0 0 0 0 0 0 0 0 0 0 0 0 0
1 2 2 2 2 1 2 2 3 3 3 2 2 1 1 1 1 1 1 1 0 0 0 1 0 0 0 0 0 0 0 0 0 0 0 0 0 0 0 0 0 0 0
1 1 2 1 2 2 2 2 3 3 2 2 1 1 1 1 1 1 1 0 0 0 0 0 0 0 0 0 0 0 -0 0 0 0 0 0 0 0 0 0 0 -0 -0
1 1 2 2 2 2 2 2 3 2 2 2 2 1 1 1 1 0 0 0 0 0 0 0 0 0 0 0 0 0 0 0 0 0 0 0 0 0 0 0 0 0 0
1 1 2 2 2 2 2 3 2 2 2 2 1 1 1 0 0 0 0 0 0 0 0 0 0 0 0 0 0 0 0 0 0 0 0 0 0 0 0 0 0 0 0
2 2 3 2 2 3 1 2 2 2 1 1 0 1 1 0 0 0 0 0 0 0 0 0 0 0 0 0 0 0 0 0 0 0 0 0 0 0 0 0 0 -0 0
3 6 4 3 3 2 0 0 1 1 1 0 1 0 0 0 0 0 0 0 0 0 0 0 0 0 0 0 0 0 0 0 0 0 0 0 0 0 0 0 0 0 0
5 5 3 3 3 0 0 0 0 1 0 1 0 0 0 0 0 0 0 0 0 0 0 0 0 0 0 0 0 0 0 0 0 0 0 0 0 0 0 0 0 0 0
5 4 3 2 1 0 0 0 0 0 0 0 0 0 0 0 0 0 0 0 0 0 0 0 0 0 0 0 0 0 0 0 0 0 0 0 0 0 0 0 0 0 0
Wind_Speed_500mb
49 43 38 36 32 30 29 30 28 29 31 33 32 32 32 31 32 32 29 41 39 37 34 30 25 24 24 28 23 20 18 16 23 30 35 36 39 37 36 36 32 29 28
54 45 44 42 40 35 29 27 26 28 32 29 33 38 36 31 32 34 31 33 39 41 40 35 30 27 25 25 27 22 20 17 22 28 33 37 37 40 37 35 34 33 33
55 49 43 43 39 35 37 32 33 37 35 32 35 35 34 34 34 35 34 32 34 37 40 36 30 27 27 29 24 27 24 19 21 26 31 35 37 37 39 38 35 37 37
56 44 46 51 40 37 36 30 32 34 33 33 34 33 31 30 30 32 34 32 31 29 30 35 32 33 32 33 34 29 26 26 22 27 31 33 35 37 37 37 36 38 38
52 42 47 55 41 32 38 32 32 32 33 38 34 35 31 31 30 29 32 33 32 30 29 33 36 32 35 35 35 33 30 25 27 25 32 35 34 34 36 36 34 35 35
62 42 38 46 49 45 36 34 29 38 38 35 32 33 33 33 30 30 31 29 28 29 32 32 31 29 32 36 37 34 32 30 28 28 29 37 37 35 34 34 33 33 34
74 67 45 72 87 37 29 53 65 54 44 42 37 32 34 36 37 33 30 27 31 33 33 37 30 28 30 33 34 34 32 31 31 34 31 35 41 38 35 32 32 33 31
88 77 68 86 84 48 37 71 59 58 43 43 31 25 31 29 29 34 32 31 33 33 33 33 29 30 30 28 31 34 35 33 35 34 32 32 40 42 39 35 32 31 30
94 78 94 93 78 60 73 77 60 58 42 42 37 28 22 25 18 18 27 32 32 33 33 30 33 31 33 33 33 32 39 38 36 37 35 32 36 42 41 38 35 32 32
91 97 95 81 70 68 72 65 65 60 52 39 30 37 40 26 21 20 16 24 30 28 27 21 22 24 27 28 32 34 36 33 36 39 36 32 36 40 39 37 35 33 32
85 87 89 84 72 77 67 74 65 62 47 38 37 25 36 32 33 30 29 22 27 27 25 24 22 20 23 23 23 29 38 41 40 36 35 34 37 36 38 36 35 33 33
62 86 82 76 75 74 75 69 65 60 49 42 34 38 30 31 32 34 37 37 32 24 25 23 24 20 21 22 26 33 36 33 37 34 34 32 38 34 36 36 33 32 34
54 66 86 83 71 70 64 68 62 53 48 43 44 34 34 32 31 30 37 38 31 23 18 24 23 22 20 18 19 25 24 26 31 37 36 32 35 34 35 35 33 33 34
84 86 82 69 59 63 61 63 56 49 43 41 42 39 33 34 35 33 35 33 31 26 24 25 19 18 17 15 24 20 20 22 29 33 36 33 35 35 32 33 33 32 34
79 79 75 71 58 57 57 57 51 45 42 39 39 40 35 32 36 33 31 33 29 34 19 24 19 22 19 17 19 15 18 22 28 30 32 37 36 35 33 30 33 35 37
77 69 65 61 56 56 54 56 45 42 39 38 31 35 38 39 38 32 32 27 28 27 29 12 13 19 21 22 23 20 21 25 25 25 28 31 32 33 31 33 33 36 32
70 64 58 55 54 52 56 55 44 39 39 36 33 34 34 33 34 36 29 30 30 26 29 14 22 22 21 20 20 26 22 19 25 29 30 31 32 31 31 33 35 31 33
57 52 47 46 48 50 55 50 46 39 38 36 36 36 36 35 38 31 31 31 25 26 26 21 18 15 15 13 17 18 22 17 24 33 30 30 29 27 29 32 31 29 33
53 51 45 48 51 52 50 46 43 41 37 36 40 41 41 37 35 33 30 28 27 25 22 18 15 16 16 20 12 14 28 25 27 28 27 29 27 27 31 33 33 29 33
51 52 49 49 49 49 46 46 44 38 35 37 39 41 39 38 34 34 29 30 27 24 22 19 19 15 20 23 15 14 26 27 23 28 28 29 30 31 32 33 27 24 35
54 51 49 48 49 50 48 45 41 40 37 39 40 39 32 32 35 33 29 31 29 26 23 25 26 18 22 28 27 24 24 28 24 27 28 29 31 34 36 34 26 24 32
54 53 53 52 51 47 51 53 44 42 40 39 40 33 31 37 35 36 36 35 31 29 27 29 27 23 26 29 30 31 30 27 21 28 28 31 33 37 37 35 31 29 33
57 58 55 54 54 50 58 55 50 43 41 33 29 29 28 25 36 38 42 41 37 32 29 26 27 24 27 33 28 31 32 27 17 30 31 30 33 34 33 33 35 32 30
63 65 62 58 60 61 51 54 50 37 32 30 28 26 27 32 33 35 40 40 38 33 32 26 24 23 22 21 35 32 29 30 21 27 32 34 36 38 35 33 31 34 33
68 66 67 65 61 54 59 59 48 35 29 26 22 21 21 22 28 34 35 34 32 33 32 30 23 21 20 21 28 33 30 26 19 31 37 20 36 33 35 32 29 35 39
75 74 66 55 56 68 65 55 43 29 28 24 22 26 27 25 24 26 29 30 31 27 26 25 24 28 29 28 23 21 23 22 18 23 34 25 36 38 28 39 33 35 35
Wind_Direction_500mb
239 243 242 249 246 252 249 252 256 257 266 267 264 257 259 253 254 253 254 263 252 249 249 253 257 252 244 248 257 276 290 255 236 232 232 236 235 235 233 240 248 237 233
246 243 252 258 258 254 249 251 256 261 272 261 265 269 266 259 258 254 254 258 263 251 250 250 253 255 248 254 252 262 274 262 238 233 236 236 236 235 235 242 248 236 231
248 257 263 265 259 254 262 269 276 276 274 271 269 262 268 272 267 258 256 252 256 262 250 242 250 260 260 253 259 257 257 265 247 236 235 237 238 238 237 241 245 242 238
253 261 259 253 258 255 268 257 264 278 278 271 270 263 263 263 261 260 259 254 252 243 257 246 249 259 261 261 255 260 257 253 258 243 235 236 235 237 237 238 241 241 244
257 254 260 264 260 257 264 255 257 263 272 273 265 264 260 258 259 259 256 262 249 238 232 250 254 261 261 264 256 254 255 253 255 251 239 235 234 234 235 237 236 242 245
248 240 253 263 283 265 260 273 279 280 267 261 259 257 256 255 255 254 256 260 246 243 244 242 249 273 269 261 257 252 249 252 253 250 248 237 233 233 234 236 238 242 246
247 248 242 263 254 254 258 290 277 277 265 262 256 259 261 259 255 250 251 245 245 247 250 251 249 257 262 273 254 247 243 253 251 248 247 239 231 230 231 234 239 243 246
241 238 241 243 253 245 283 273 269 273 255 251 248 256 268 261 257 253 242 242 243 244 253 257 254 250 250 253 261 248 244 251 251 247 245 240 230 229 231 234 239 243 240
239 238 244 239 251 247 246 251 267 262 238 246 248 233 264 260 272 249 244 238 243 245 251 258 250 253 253 252 250 247 246 252 251 249 246 239 232 226 229 233 237 242 238
235 229 235 243 248 262 257 261 271 256 236 230 234 241 238 243 244 258 242 240 233 242 245 233 249 252 252 258 255 248 250 248 246 249 241 236 222 223 226 231 234 237 233
234 240 242 253 257 256 260 270 260 248 235 230 236 240 234 241 243 246 256 232 238 242 242 255 243 254 261 251 259 267 257 251 249 239 230 229 216 217 222 228 232 233 227
240 237 240 252 256 262 267 259 242 240 235 248 233 229 231 228 236 239 246 249 243 234 235 242 253 254 254 257 263 253 263 250 237 223 220 219 219 214 223 226 229 229 223
236 244 247 252 261 259 255 246 238 235 246 249 247 227 230 232 235 233 240 249 251 246 245 243 248 251 250 258 260 265 254 242 226 215 214 217 219 215 220 223 225 222 218
245 250 259 261 259 252 253 236 232 235 247 252 239 231 228 228 231 233 236 249 257 257 236 240 243 245 250 256 248 268 248 225 215 210 207 206 209 213 215 218 220 214 218
247 256 258 260 254 241 240 228 227 238 244 241 234 233 230 226 233 231 239 237 242 256 222 233 234 250 242 259 253 247 215 224 209 211 215 212 206 210 213 211 210 207 207
247 242 248 252 244 231 224 225 224 231 234 227 217 227 234 230 228 223 225 235 241 252 258 226 234 248 267 264 248 221 215 206 205 202 201 204 204 208 209 207 203 203 194
244 241 236 239 227 219 216 223 217 213 219 215 225 226 222 217 218 222 223 236 235 238 248 221 243 264 273 266 241 221 218 209 207 204 203 202 205 206 205 202 201 201 190
234 226 219 217 210 210 215 217 208 203 205 217 215 208 210 219 213 215 223 229 234 234 233 237 238 249 250 246 226 226 210 201 197 197 199 200 201 199 198 197 195 184 185
226 222 211 210 204 203 207 204 202 204 208 220 213 218 211 207 211 220 220 232 227 223 229 228 228 227 222 223 208 224 199 186 180 187 196 199 197 193 191 191 189 189 194
221 220 211 204 199 200 200 200 196 200 210 211 212 215 209 210 212 218 221 222 217 213 215 211 216 217 222 214 205 201 186 189 188 190 192 193 191 187 188 189 186 195 189
218 213 206 200 197 196 196 193 195 200 199 200 207 212 211 211 217 218 217 220 215 210 213 210 210 209 218 210 207 193 194 191 190 194 190 187 186 184 178 182 186 188 187
212 203 201 195 192 194 197 192 188 191 189 203 210 211 215 226 225 224 220 226 219 208 211 214 210 217 219 210 202 196 195 182 174 192 191 184 187 188 185 191 197 202 195
201 194 192 187 190 188 198 198 191 184 188 191 194 202 206 222 223 225 226 227 225 218 209 212 212 212 219 209 195 193 194 176 190 191 186 189 189 190 194 200 200 203 203
195 186 183 182 178 194 190 179 178 177 183 191 198 206 214 222 230 217 229 223 220 218 212 210 213 215 215 203 194 192 187 183 196 185 186 193 195 200 204 203 209 206 209
183 180 174 175 176 179 171 171 173 177 190 192 201 209 218 221 224 214 213 216 203 206 203 207 211 197 166 176 183 184 184 181 175 185 186 195 200 204 210 219 224 210 216
170 169 166 171 173 166 167 173 170 180 186 192 188 208 195 192 207 202 204 198 197 196 193 200 190 173 164 166 170 179 173 174 182 194 200 202 201 206 207 219 218 217 213
Wind_Speed_850mb
49 43 38 36 32 30 29 30 28 29 31 33 32 32 32 31 32 32 29 41 39 37 34 30 25 24 24 28 23 20 18 16 23 30 35 36 39 37 36 36 32 29 28
54 45 44 42 40 35 29 27 26 28 32 29 33 38 36 31 32 34 31 33 39 41 40 35 30 27 25 25 27 22 20 17 22 28 33 37 37 40 37 35 34 33 33
55 49 43 43 39 35 37 32 33 37 35 32 35 35 34 34 34 35 34 32 34 37 40 36 30 27 27 29 24 27 24 19 21 26 31 35 37 37 39 38 35 37 37
56 44 46 51 40 37 36 30 32 34 33 33 34 33 31 30 30 32 34 32 31 29 30 35 32 33 32 33 34 29 26 26 22 27 31 33 35 37 37 37 36 38 38
52 42 47 55 41 32 38 32 32 32 33 38 34 35 31 31 30 29 32 33 32 30 29 33 36 32 35 35 35 33 30 25 27 25 32 35 34 34 36 36 34 35 35
62 42 38 46 49 45 36 34 29 38 38 35 32 33 33 33 30 30 31 29 28 29 32 32 31 29 32 36 37 34 32 30 28 28 29 37 37 35 34 34 33 33 34
74 67 45 72 87 37 29 53 65 54 44 42 37 32 34 36 37 33 30 27 31 33 33 37 30 28 30 33 34 34 32 31 31 34 31 35 41 38 35 32 32 33 31
88 77 68 86 84 48 37 71 59 58 43 43 31 25 31 29 29 34 32 31 33 33 33 33 29 30 30 28 31 34 35 33 35 34 32 32 40 42 39 35 32 31 30
94 78 94 93 78 60 73 77 60 58 42 42 37 28 22 25 18 18 27 32 32 33 33 30 33 31 33 33 33 32 39 38 36 37 35 32 36 42 41 38 35 32 32
91 97 95 81 70 68 72 65 65 60 52 39 30 37 40 26 21 20 16 24 30 28 27 21 22 24 27 28 32 34 36 33 36 39 36 32 36 40 39 37 35 33 32
85 87 89 84 72 77 67 74 65 62 47 38 37 25 36 32 33 30 29 22 27 27 25 24 22 20 23 23 23 29 38 41 40 36 35 34 37 36 38 36 35 33 33
62 86 82 76 75 74 75 69 65 60 49 42 34 38 30 31 32 34 37 37 32 24 25 23 24 20 21 22 26 33 36 33 37 34 34 32 38 34 36 36 33 32 34
54 66 86 83 71 70 64 68 62 53 48 43 44 34 34 32 31 30 37 38 31 23 18 24 23 22 20 18 19 25 24 26 31 37 36 32 35 34 35 35 33 33 34
84 86 82 69 59 63 61 63 56 49 43 41 42 39 33 34 35 33 35 33 31 26 24 25 19 18 17 15 24 20 20 22 29 33 36 33 35 35 32 33 33 32 34
79 79 75 71 58 57 57 57 51 45 42 39 39 40 35 32 36 33 31 33 29 34 19 24 19 22 19 17 19 15 18 22 28 30 32 37 36 35 33 30 33 35 37
77 69 65 61 56 56 54 56 45 42 39 38 31 35 38 39 38 32 32 27 28 27 29 12 13 19 21 22 23 20 21 25 25 25 28 31 32 33 31 33 33 36 32
70 64 58 55 54 52 56 55 44 39 39 36 33 34 34 33 34 36 29 30 30 26 29 14 22 22 21 20 20 26 22 19 25 29 30 31 32 31 31 33 35 31 33
57 52 47 46 48 50 55 50 46 39 38 36 36 36 36 35 38 31 31 31 25 26 26 21 18 15 15 13 17 18 22 17 24 33 30 30 29 27 29 32 31 29 33
53 51 45 48 51 52 50 46 43 41 37 36 40 41 41 37 35 33 30 28 27 25 22 18 15 16 16 20 12 14 28 25 27 28 27 29 27 27 31 33 33 29 33
51 52 49 49 49 49 46 46 44 38 35 37 39 41 39 38 34 34 29 30 27 24 22 19 19 15 20 23 15 14 26 27 23 28 28 29 30 31 32 33 27 24 35
54 51 49 48 49 50 48 45 41 40 37 39 40 39 32 32 35 33 29 31 29 26 23 25 26 18 22 28 27 24 24 28 24 27 28 29 31 34 36 34 26 24 32
54 53 53 52 51 47 51 53 44 42 40 39 40 33 31 37 35 36 36 35 31 29 27 29 27 23 26 29 30 31 30 27 21 28 28 31 33 37 37 35 31 29 33
57 58 55 54 54 50 58 55 50 43 41 33 29 29 28 25 36 38 42 41 37 32 29 26 27 24 27 33 28 31 32 27 17 30 31 30 33 34 33 33 35 32 30
63 65 62 58 60 61 51 54 50 37 32 30 28 26 27 32 33 35 40 40 38 33 32 26 24 23 22 21 35 32 29 30 21 27 32 34 36 38 35 33 31 34 33
68 66 67 65 61 54 59 59 48 35 29 26 22 21 21 22 28 34 35 34 32 33 32 30 23 21 20 21 28 33 30 26 19 31 37 20 36 33 35 32 29 35 39
75 74 66 55 56 68 65 55 43 29 28 24 22 26 27 25 24 26 29 30 31 27 26 25 24 28 29 28 23 21 23 22 18 23 34 25 36 38 28 39 33 35 35
Wind_Direction_850mb
239 243 242 249 246 252 249 252 256 257 266 267 264 257 259 253 254 253 254 263 252 249 249 253 257 252 244 248 257 276 290 255 236 232 232 236 235 235 233 240 248 237 233
246 243 252 258 258 254 249 251 256 261 272 261 265 269 266 259 258 254 254 258 263 251 250 250 253 255 248 254 252 262 274 262 238 233 236 236 236 235 235 242 248 236 231
248 257 263 265 259 254 262 269 276 276 274 271 269 262 268 272 267 258 256 252 256 262 250 242 250 260 260 253 259 257 257 265 247 236 235 237 238 238 237 241 245 242 238
253 261 259 253 258 255 268 257 264 278 278 271 270 263 263 263 261 260 259 254 252 243 257 246 249 259 261 261 255 260 257 253 258 243 235 236 235 237 237 238 241 241 244
257 254 260 264 260 257 264 255 257 263 272 273 265 264 260 258 259 259 256 262 249 238 232 250 254 261 261 264 256 254 255 253 255 251 239 235 234 234 235 237 236 242 245
248 240 253 263 283 265 260 273 279 280 267 261 259 257 256 255 255 254 256 260 246 243 244 242 249 273 269 261 257 252 249 252 253 250 248 237 233 233 234 236 238 242 246
247 248 242 263 254 254 258 290 277 277 265 262 256 259 261 259 255 250 251 245 245 247 250 251 249 257 262 273 254 247 243 253 251 248 247 239 231 230 231 234 239 243 246
241 238 241 243 253 245 283 273 269 273 255 251 248 256 268 261 257 253 242 242 243 244 253 257 254 250 250 253 261 248 244 251 251 247 245 240 230 229 231 234 239 243 240
239 238 244 239 251 247 246 251 267 262 238 246 248 233 264 260 272 249 244 238 243 245 251 258 250 253 253 252 250 247 246 252 251 249 246 239 232 226 229 233 237 242 238
235 229 235 243 248 262 257 261 271 256 236 230 234 241 238 243 244 258 242 240 233 242 245 233 249 252 252 258 255 248 250 248 246 249 241 236 222 223 226 231 234 237 233
234 240 242 253 257 256 260 270 260 248 235 230 236 240 234 241 243 246 256 232 238 242 242 255 243 254 261 251 259 267 257 251 249 239 230 229 216 217 222 228 232 233 227
240 237 240 252 256 262 267 259 242 240 235 248 233 229 231 228 236 239 246 249 243 234 235 242 253 254 254 257 263 253 263 250 237 223 220 219 219 214 223 226 229 229 223
236 244 247 252 261 259 255 246 238 235 246 249 247 227 230 232 235 233 240 249 251 246 245 243 248 251 250 258 260 265 254 242 226 215 214 217 219 215 220 223 225 222 218
245 250 259 261 259 252 253 236 232 235 247 252 239 231 228 228 231 233 236 249 257 257 236 240 243 245 250 256 248 268 248 225 215 210 207 206 209 213 215 218 220 214 218
247 256 258 260 254 241 240 228 227 238 244 241 234 233 230 226 233 231 239 237 242 256 222 233 234 250 242 259 253 247 215 224 209 211 215 212 206 210 213 211 210 207 207
247 242 248 252 244 231 224 225 224 231 234 227 217 227 234 230 228 223 225 235 241 252 258 226 234 248 267 264 248 221 215 206 205 202 201 204 204 208 209 207 203 203 194
244 241 236 239 227 219 216 223 217 213 219 215 225 226 222 217 218 222 223 236 235 238 248 221 243 264 273 266 241 221 218 209 207 204 203 202 205 206 205 202 201 201 190
234 226 219 217 210 210 215 217 208 203 205 217 215 208 210 219 213 215 223 229 234 234 233 237 238 249 250 246 226 226 210 201 197 197 199 200 201 199 198 197 195 184 185
226 222 211 210 204 203 207 204 202 204 208 220 213 218 211 207 211 220 220 232 227 223 229 228 228 227 222 223 208 224 199 186 180 187 196 199 197 193 191 191 189 189 194
221 220 211 204 199 200 200 200 196 200 210 211 212 215 209 210 212 218 221 222 217 213 215 211 216 217 222 214 205 201 186 189 188 190 192 193 191 187 188 189 186 195 189
218 213 206 200 197 196 196 193 195 200 199 200 207 212 211 211 217 218 217 220 215 210 213 210 210 209 218 210 207 193 194 191 190 194 190 187 186 184 178 182 186 188 187
212 203 201 195 192 194 197 192 188 191 189 203 210 211 215 226 225 224 220 226 219 208 211 214 210 217 219 210 202 196 195 182 174 192 191 184 187 188 185 191 197 202 195
201 194 192 187 190 188 198 198 191 184 188 191 194 202 206 222 223 225 226 227 225 218 209 212 212 212 219 209 195 193 194 176 190 191 186 189 189 190 194 200 200 203 203
195 186 183 182 178 194 190 179 178 177 183 191 198 206 214 222 230 217 229 223 220 218 212 210 213 215 215 203 194 192 187 183 196 185 186 193 195 200 204 203 209 206 209
183 180 174 175 176 179 171 171 173 177 190 192 201 209 218 221 224 214 213 216 203 206 203 207 211 197 166 176 183 184 184 181 175 185 186 195 200 204 210 219 224 210 216
170 169 166 171 173 166 167 173 170 180 186 192 188 208 195 192 207 202 204 198 197 196 193 200 190 173 164 166 170 179 173 174 182 194 200 202 201 206 207 219 218 217 213